USA 74

导读 | 豆包AI

USA 74是美国于1991年11月8日在范登堡空军基地,通过泰坦IV(403)A运载火箭发射的军用电子侦察卫星,隶属于美国海军海洋监视系统(NOSS)第二批次,用于海上目标的电子信号截获与地理定位。该卫星运行在近地轨道,轨道参数约为近地点1052公里、远地点1164公里,倾角63.4°,以三星组网方式,通过时差定位技术监测海上舰船活动,服务冷战后期美国对海上战略目标的情报搜集需求,是美国天基电子监视体系的重要组成部分。

Basic Information
目录编号:
21799
目录名称:
USA 74
国际标识:
1991-076C
轨道中心:
EARTH
卫星名称:
USA 74
卫星全名:
--
卫星状态:
在轨 (已飞行12592 天)
发射日期:
1991-11-08 UTC
国别 :
美国 (US)
星等 :
--
Orbit Information
数据来源 国际轨道数据 AOE轨道数据
星历时间 2026-04-30T21:59:18+0800
8小时前
查看轨道信息
2026-04-30T09:00:00+0800
21小时前
查看轨道信息
半长轴 7409.778km 7409.813km
偏心率 0.0883366 0.0883372
轨道倾角 63.295° 63.294°
近地点辐角 72.328° 72.318°
升交点赤经 271.929° 273.384°
平近点角 297.215° 165.420°
近地点 377.086km 377.113km
远地点 1686.196km 1686.239km
周期 105.796分钟 105.796分钟
每日圈数 13.611156 13.611059
Detailed Information
使用方式:
暂无
2D Orbit Map
3D Orbit Map
Orbit Altitude Analysis Chart
Orbit Inclination Analysis Chart
Orbit Comprehensive Analysis Chart
View Comprehensive Chart